User: anonymous   Login
Location: Unspecified
(0.0000°N, 0.0000°E)
Time: 21:18:32
(UTC+00:00)
Language:

Picosat 4 - Orbit

View from above orbital plane
View from above orbital plane
View from above satellite
View from above satellite

Ground track
Ground track

The orbit data is extracted from the following two-line orbital elements,

1 26092U 00004K   17141.61598497 +.00000138 +00000-0 +58707-4 0  9999
2 26092 100.2014 184.9456 0033074 253.3194 106.4359 14.43267790907861
Epoch (UTC): 21 May 2017 14:47:01
Eccentricity: 0.0033074
inclination: 100.2014°
perigee height: 724 km
apogee height: 771 km
right ascension of ascending node: 184.9456°
argument of perigee: 253.3194°
revolutions per day: 14.43267790
mean anomaly at epoch: 106.4359°
orbit number at epoch: 90786

The dashed part of the orbit path shows where the satellite is in the earth's shadow,  

DLR